Home   Weather   Spydeberg   Past weeks

Flag for Norway Past Weather in Spydeberg, Norway — Yesterday and Last 2 Weeks

Now
43 °F

Passing clouds.


Feels Like: 37 °F
Forecast: 27 / 33 °F
Wind: 10 mph from Southwest

Location: Rygge

Current Time: Dec 5, 2016 at 5:38:38 am

Latest Report: Dec 5, 2016 at 4:50 am


Visibility: N/A

Pressure: 29.98 "Hg

Humidity: 66%

Dew Point: 32 °F

Location of SpydebergLocation

Past Weather in Spydeberg — Graph

°F

Spydeberg Temperature Yesterday

Maximum temperature yesterday: 37 °F (at 7:20 pm)
Minimum temperature yesterday: 21 °F (at 5:20 am)
Average temperature yesterday: 28 °F

High & Low Weather Summary for the Past Weeks

 TemperatureHumidityPressure
High50 °F (Nov 26, 11:50 am)100% (Nov 20, 4:20 am)30.45 "Hg (Nov 20, 4:20 am)
Low19 °F (Dec 3, 4:50 am)42% (Nov 26, 3:50 pm)29.27 "Hg (Nov 21, 1:50 am)
Average36 °F80%29.93 "Hg
* Reported Nov 20 4:20 am — Dec 5 4:20 am, Spydeberg, Weather by CustomWeather, © 2016

Note: Actual official high and low records may vary slightly from our data, if they occured in-between our weather recording intervals... More about our weather records

Advertising

Spydeberg Weather History for the Previous 24 Hours

Scroll right to see more
 ConditionsComfort  
Time TempWeatherWind HumidityBarometerVisibility
4:20 am
Mon, Dec 5
43 °FPassing clouds.7 mph66%29.98 "HgN/A
3:50 am43 °FPassing clouds.7 mph66%30.01 "HgN/A
3:20 am41 °FPassing clouds.6 mph70%30.01 "HgN/A
2:50 am39 °FPassing clouds.8 mph81%30.01 "HgN/A
2:20 am39 °FPassing clouds.8 mph81%30.01 "HgN/A
1:50 am39 °FPassing clouds.9 mph81%30.01 "HgN/A
1:20 am37 °FPassing clouds.7 mph87%30.01 "HgN/A
12:50 am37 °FPassing clouds.9 mph87%30.04 "HgN/A
12:20 am37 °FPassing clouds.10 mph87%30.04 "HgN/A
11:50 pm
Sun, Dec 4
37 °FPassing clouds.9 mph87%30.04 "HgN/A
11:20 pm37 °FPassing clouds.9 mph87%30.04 "HgN/A
10:50 pm37 °FMostly cloudy.9 mph87%30.07 "HgN/A
10:20 pm37 °FPassing clouds.10 mph87%30.07 "HgN/A
9:50 pm37 °FPassing clouds.10 mph87%30.07 "HgN/A
9:20 pm37 °FChilly.10 mph87%30.07 "HgN/A
8:50 pm36 °FChilly.12 mph93%30.07 "HgN/A
8:20 pm36 °FChilly.12 mph93%30.07 "HgN/A
7:50 pm36 °FPassing clouds.9 mph93%30.07 "HgN/A
7:20 pm37 °FOvercast.12 mph87%30.07 "HgN/A
6:50 pm36 °FPassing clouds.10 mph93%30.09 "HgN/A
6:20 pm36 °FPassing clouds.8 mph93%30.09 "HgN/A
5:50 pm36 °FPassing clouds.12 mph93%30.09 "HgN/A
5:20 pm28 °FPartly cloudy.2 mph93%30.09 "HgN/A
4:50 pm32 °FPassing clouds.7 mph100%30.09 "HgN/A
4:20 pm28 °FPassing clouds.5 mph100%30.09 "HgN/A
3:50 pm28 °FPassing clouds.6 mph100%30.09 "HgN/A
3:20 pm28 °FChilly.1 mph93%30.09 "Hg6 mi
2:50 pm28 °FChilly.1 mph93%30.09 "HgN/A
2:20 pm30 °FChilly.3 mph93%30.12 "HgN/A
1:50 pm30 °FSunny.1 mph93%30.12 "Hg10 mi
1:20 pm28 °FSunny.2 mph93%30.12 "Hg10 mi
12:50 pm27 °FSunny.2 mph93%30.12 "Hg10 mi
12:20 pm25 °FSunny.2 mph100%30.12 "Hg10 mi
11:50 am25 °FSunny.1 mph93%30.15 "Hg10 mi
11:20 am23 °FSunny.2 mph100%30.15 "Hg10 mi
10:50 am23 °FSunny.1 mph93%30.15 "Hg10 mi
10:20 am23 °FSunny.3 mph93%30.15 "Hg10 mi
9:50 am21 °FSunny.2 mph93%30.15 "Hg10 mi
9:20 am21 °FCold.2 mph93%30.15 "HgN/A
8:50 am21 °FCold.2 mph93%30.15 "HgN/A
8:20 am21 °FCold.2 mph93%30.15 "HgN/A
7:50 am21 °FCold.1 mph93%30.15 "HgN/A
7:20 am21 °FPassing clouds.No wind93%30.15 "HgN/A
6:50 am21 °FCold.2 mph93%30.15 "HgN/A
6:20 am21 °FCold.1 mph93%30.15 "HgN/A
5:50 am21 °FCold.2 mph100%30.15 "HgN/A
5:20 am21 °FCold.2 mph93%30.15 "HgN/A
Weather by CustomWeather, © 2016

See weather overviewHow to use our weather pages